Regional Weather Roundup
Issued by NWS

Home | Current Version | Previous Version | Graphics & Text | Print | Product List | Glossary On
Versions: 1 2 3 4 5 6 7 8 9 10 11 12 13 14 15 16 17 18 19 20 21 22 23 24 25 26 27 28 29 30 31 32 33 34 35 36 37 38 39 40 41 42 43 44 45 46 47 48 49 50
000
ASUS43 KFSD 200502
RWRSD

WEATHER ROUNDUP FOR SOUTH DAKOTA
NATIONAL WEATHER SERVICE SIOUX FALLS SD
1200 AM CDT THU JUL 20 2017

NOTE: "FAIR" INDICATES FEW OR NO CLOUDS BELOW 12,000 FEET WITH NO
SIGNIFICANT WEATHER AND/OR OBSTRUCTIONS TO VISIBILITY.


SDZ001>005-009-010-012>017-200600-
NORTHWEST AND NORTH CENTRAL SOUTH DAKOTA

CITY           SKY/WX    TMP DP  RH WIND       PRES   REMARKS
BUFFALO          N/A     73  56  54 SE9       30.01R
FAITH            N/A     69  60  73 NE9       30.05R
MOBRIDGE       PTCLDY    74  66  76 NE7       29.99R
$$

SDZ012>016-024>037-041>051-057-063-072>074-200600-
SOUTHWEST AND SOUTH CENTRAL SOUTH DAKOTA

CITY           SKY/WX    TMP DP  RH WIND       PRES   REMARKS
RAPID CTY ARPT CLOUDY    74  57  55 N9        30.08R
PIERRE         PTCLDY    78  72  81 NE12      29.96R
CUSTER         CLOUDY    70  52  52 E15       30.24R
ELLSWORTH AFB  CLOUDY    78  58  49 N7        30.09R
PHILIP         MOCLDY    77  70  79 E9        30.00R
PINE RIDGE     CLOUDY    77  63  61 E7        30.06R
SPEARFISH      FAIR      70  57  64 SE7       30.13S
WINNER         FAIR      76  66  71 N3        29.95S
$$

SDZ004>011-016>023-039-040-200600-
NORTHEAST SOUTH DAKOTA

CITY           SKY/WX    TMP DP  RH WIND       PRES   REMARKS
ABERDEEN       CLEAR     68  68 100 CALM      29.97R
WATERTOWN      CLEAR     69  69 100 NE6       29.97R
BROOKINGS      CLOUDY    73  71  93 N7        29.95R
SISSETON         N/A     67  66  97 NW3       29.95S
$$

SDZ017-020-022-023-036>040-048>070-200600-
SOUTHEAST SOUTH DAKOTA

CITY           SKY/WX    TMP DP  RH WIND       PRES   REMARKS
SIOUX FALLS    CLOUDY    75  74  96 N6        29.92R
HURON          PTCLDY    76  72  87 N12       29.94R
CHAMBERLAIN    CLOUDY    79  67  68 N5        29.95S
MITCHELL       MOCLDY    77  75  93 N7        29.92R
YANKTON        CLOUDY    82  71  69 NW12      29.88S
$$

ABBREVIATIONS USED IN REMARKS
   TC - TEMPERATURE IN CELSIUS
  WCI - WIND CHILL INDEX
   HX - HEAT INDEX
  VSB - VISIBILITY




USA.gov is the U.S. government's official web portal to all federal, state and local government web resources and services.